Change the Weather History Date:

Monday, April 15, 2013

  Actual Average Record
Temperature  
Mean Temperature 58 °F -  
Max Temperature 78 °F 74 °F 84 °F (1998)
Min Temperature 37 °F 42 °F 35 °F (2001)
Degree Days  
Heating Degree Days 8    
Growing Degree Days 8 (Base 50)    
Moisture  
Dew Point 23 °F    
Average Humidity 32    
Maximum Humidity 71    
Minimum Humidity 8    
Precipitation  
Precipitation 0.00 in - - ()
Sea Level Pressure  
Sea Level Pressure 30.12 in    
Wind  
Wind Speed 3 mph ()    
Max Wind Speed 14 mph    
Max Gust Speed -    
Visibility 4.8 miles    
Events      
Averages and records for this station are not official NWS values.
T = Trace of Precipitation, MM = Missing Value Source: Averaged Metar Reports

Daily Weather History Graph

Daily Weather History Graph

Search for Another Location

Airport or City:

Trip Planner

Search our weather history database for the weather conditions in past years. The results will help you decide how hot, cold, wet, or windy it might be!

Date:

Astronomy

Apr. 15, 2013 Rise Set
Actual Time 7:20 AM CDT 7:56 PM CDT
Civil Twilight 6:58 AM CDT 8:18 PM CDT
Nautical Twilight 6:32 AM CDT 8:44 PM CDT
Astronomical Twilight 6:05 AM CDT 9:11 PM CDT
Moon 11:10 AM CDT (4/15) No Moon Set
Length of Visible Light 13h 20m
Length of Day
12h 35m
Waxing Crescent, 25% of the Moon is Illuminated
Apr 15
Waxing Crescent
Apr 18
First Quarter
Apr 25
Full
May 2
Last Quarter
May 9
New

Hourly Weather History & Observations

Time (CDT) Temp. Dew Point Humidity Pressure Visibility Wind Dir Wind Speed Gust Speed Precip Events Conditions
12:45 AM 50.0 °F 23.0 °F 35% 29.69 in 7.0 mi North 4.6 mph - N/A   Scattered Clouds
1:43 AM 48.2 °F 23.0 °F 37% 30.31 in 7.0 mi Calm Calm - N/A   Scattered Clouds
2:44 AM 44.6 °F 23.0 °F 43% 30.30 in 7.0 mi North 2.3 mph - N/A   Scattered Clouds
3:44 AM 42.8 °F 23.0 °F 46% 29.70 in 7.0 mi Calm Calm - N/A   Scattered Clouds
4:44 AM 39.2 °F 26.6 °F 61% 30.30 in 7.0 mi Calm Calm - N/A   Scattered Clouds
5:43 AM 39.2 °F 26.6 °F 61% 30.30 in 5.0 mi Calm Calm - N/A   Clear
6:46 AM 37.4 °F 24.8 °F 60% 29.79 in 5.0 mi Calm Calm - N/A   Clear
7:45 AM 37.4 °F 26.6 °F 65% 30.33 in 5.0 mi Calm Calm - N/A   Clear
8:46 AM 44.6 °F 35.6 °F 71% 30.35 in 3.0 mi Calm Calm - N/A   Clear
9:45 AM 53.6 °F 26.6 °F 35% 29.83 in 3.0 mi ESE 3.5 mph - N/A   Clear
10:44 AM 62.6 °F 24.8 °F 24% 30.36 in 2.0 mi SE 3.5 mph - N/A   Clear
11:47 AM 68.0 °F 24.8 °F 20% 30.35 in 2.0 mi WSW 3.5 mph - N/A   Clear
12:44 PM 73.4 °F 21.2 °F 14% 29.70 in 2.0 mi South 9.2 mph - N/A   Clear
1:12 PM 75.2 °F 19.4 °F 12% 30.32 in 2.0 mi ESE 3.5 mph - N/A   Haze
1:45 PM 77.0 °F 14.0 °F 9% 30.30 in 3.0 mi SE 13.8 mph - N/A   Haze
2:46 PM 77.0 °F 10.4 °F 8% 30.28 in 3.0 mi SSW 4.6 mph - N/A   Haze
3:46 PM 77.0 °F 10.4 °F 8% 29.68 in 5.0 mi WNW 4.6 mph - N/A   Clear
4:46 PM 78.8 °F 12.2 °F 8% 30.23 in 5.0 mi South 8.1 mph - N/A   Clear
5:45 PM 77.0 °F 19.4 °F 12% 30.23 in 5.0 mi SSE 12.7 mph - N/A   Clear
6:48 PM 73.4 °F 21.2 °F 14% 29.71 in 5.0 mi South 13.8 mph - N/A   Scattered Clouds
7:46 PM 69.8 °F 26.6 °F 20% 30.27 in 6.0 mi SSW 8.1 mph - N/A   Partly Cloudy
8:40 PM 62.6 °F 30.2 °F 30% 30.30 in 6.0 mi NW 6.9 mph - N/A   Clear
9:45 PM 60.8 °F 30.2 °F 31% 29.78 in 6.0 mi NNW 4.6 mph - N/A   Clear
10:45 PM 57.2 °F 30.2 °F 36% 30.35 in 6.0 mi NNW 6.9 mph - N/A   Clear
11:45 PM 51.8 °F 28.4 °F 41% 30.36 in 6.0 mi NNE 6.9 mph - N/A   Clear